Year,Month,Day,Hour,Minute,Value (Times are PST for temperature in C)
2008,04,26,00,00,5.20
2008,04,26,00,01,5.20
2008,04,26,00,02,5.10
2008,04,26,00,03,5.10
2008,04,26,00,04,5.10
2008,04,26,00,05,5.10
2008,04,26,00,06,5.00
2008,04,26,00,07,5.00
2008,04,26,00,08,4.90
2008,04,26,00,09,4.90
2008,04,26,00,10,4.90
2008,04,26,00,11,4.80
2008,04,26,00,12,4.80
2008,04,26,00,13,4.70
2008,04,26,00,14,4.70
2008,04,26,00,15,4.60
2008,04,26,00,16,4.60
2008,04,26,00,17,4.60
2008,04,26,00,18,4.60
2008,04,26,00,19,4.50
2008,04,26,00,20,4.50
2008,04,26,00,21,4.50
2008,04,26,00,22,4.50
2008,04,26,00,23,4.40
2008,04,26,00,24,4.40
2008,04,26,00,25,4.40
2008,04,26,00,26,4.40
2008,04,26,00,27,4.40
2008,04,26,00,28,4.40
2008,04,26,00,29,4.40
2008,04,26,00,30,4.40
2008,04,26,00,31,4.40
2008,04,26,00,32,4.40
2008,04,26,00,33,4.40
2008,04,26,00,34,4.40
2008,04,26,00,35,4.40
2008,04,26,00,36,4.40
2008,04,26,00,37,4.40
2008,04,26,00,38,4.40
2008,04,26,00,39,4.40
2008,04,26,00,40,4.40
2008,04,26,00,41,4.40
2008,04,26,00,42,4.40
2008,04,26,00,43,4.40
2008,04,26,00,44,4.40
2008,04,26,00,45,4.40
2008,04,26,00,46,4.40
2008,04,26,00,47,4.40
2008,04,26,00,48,4.40
2008,04,26,00,49,4.40
2008,04,26,00,50,4.40
2008,04,26,00,51,4.40
2008,04,26,00,52,4.40
2008,04,26,00,53,4.40
2008,04,26,00,54,4.40
2008,04,26,00,55,4.30
2008,04,26,00,56,4.30
2008,04,26,00,57,4.30
2008,04,26,00,58,4.30
2008,04,26,00,59,4.30
2008,04,26,01,00,4.30
2008,04,26,01,01,4.30
2008,04,26,01,02,4.20
2008,04,26,01,03,4.20
2008,04,26,01,04,4.20
2008,04,26,01,05,4.20
2008,04,26,01,06,4.10
2008,04,26,01,07,4.10
2008,04,26,01,08,4.10
2008,04,26,01,09,4.10
2008,04,26,01,10,4.10
2008,04,26,01,11,4.20
2008,04,26,01,12,4.20
2008,04,26,01,13,4.20
2008,04,26,01,14,4.20
2008,04,26,01,15,4.20
2008,04,26,01,16,4.20
2008,04,26,01,17,4.20
2008,04,26,01,18,4.20
2008,04,26,01,19,4.20
2008,04,26,01,20,4.20
2008,04,26,01,21,4.10
2008,04,26,01,22,4.10
2008,04,26,01,23,4.10
2008,04,26,01,24,4.10
2008,04,26,01,25,4.10
2008,04,26,01,26,4.10
2008,04,26,01,27,4.10
2008,04,26,01,28,4.10
2008,04,26,01,29,4.10
2008,04,26,01,30,4.00
2008,04,26,01,31,4.00
2008,04,26,01,32,4.00
2008,04,26,01,33,4.00
2008,04,26,01,34,4.00
2008,04,26,01,35,4.00
2008,04,26,01,36,4.00
2008,04,26,01,37,3.90
2008,04,26,01,38,4.00
2008,04,26,01,39,4.00
2008,04,26,01,40,4.00
2008,04,26,01,41,4.00
2008,04,26,01,42,4.00
2008,04,26,01,43,4.00
2008,04,26,01,44,4.00
2008,04,26,01,45,4.00
2008,04,26,01,46,4.00
2008,04,26,01,47,4.00
2008,04,26,01,48,4.00
2008,04,26,01,49,4.00
2008,04,26,01,50,4.00
2008,04,26,01,51,4.00
2008,04,26,01,52,4.00
2008,04,26,01,53,4.00
2008,04,26,01,54,4.10
2008,04,26,01,55,4.10
2008,04,26,01,56,4.10
2008,04,26,01,57,4.20
2008,04,26,01,58,4.20
2008,04,26,01,59,4.30
2008,04,26,02,00,4.40
2008,04,26,02,01,4.40
2008,04,26,02,02,4.50
2008,04,26,02,03,4.60
2008,04,26,02,04,4.60
2008,04,26,02,05,4.70
2008,04,26,02,06,4.70
2008,04,26,02,07,4.70
2008,04,26,02,08,4.70
2008,04,26,02,09,4.70
2008,04,26,02,10,4.70
2008,04,26,02,11,4.60
2008,04,26,02,12,4.50
2008,04,26,02,13,4.40
2008,04,26,02,14,4.30
2008,04,26,02,15,4.20
2008,04,26,02,16,4.10
2008,04,26,02,17,4.10
2008,04,26,02,18,4.00
2008,04,26,02,19,4.00
2008,04,26,02,20,3.90
2008,04,26,02,21,3.90
2008,04,26,02,22,3.90
2008,04,26,02,23,3.80
2008,04,26,02,24,3.80
2008,04,26,02,25,3.90
2008,04,26,02,26,4.00
2008,04,26,02,27,4.10
2008,04,26,02,28,4.20
2008,04,26,02,29,4.30
2008,04,26,02,30,4.40
2008,04,26,02,31,4.50
2008,04,26,02,32,4.60
2008,04,26,02,33,4.70
2008,04,26,02,34,4.80
2008,04,26,02,35,4.90
2008,04,26,02,36,4.90
2008,04,26,02,37,4.90
2008,04,26,02,38,5.00
2008,04,26,02,39,5.10
2008,04,26,02,40,5.10
2008,04,26,02,41,5.10
2008,04,26,02,42,5.20
2008,04,26,02,43,5.20
2008,04,26,02,44,5.20
2008,04,26,02,45,5.20
2008,04,26,02,46,5.20
2008,04,26,02,47,5.20
2008,04,26,02,48,5.20
2008,04,26,02,49,5.20
2008,04,26,02,50,5.10
2008,04,26,02,51,5.10
2008,04,26,02,52,5.00
2008,04,26,02,53,4.90
2008,04,26,02,54,4.90
2008,04,26,02,55,4.80
2008,04,26,02,56,4.70
2008,04,26,02,57,4.70
2008,04,26,02,58,4.60
2008,04,26,02,59,4.50
2008,04,26,03,00,4.50
2008,04,26,03,01,4.40
2008,04,26,03,02,4.40
2008,04,26,03,03,4.30
2008,04,26,03,04,4.20
2008,04,26,03,05,4.20
2008,04,26,03,06,4.10
2008,04,26,03,07,4.00
2008,04,26,03,08,3.90
2008,04,26,03,09,3.80
2008,04,26,03,10,3.80
2008,04,26,03,11,3.70
2008,04,26,03,12,3.70
2008,04,26,03,13,3.60
2008,04,26,03,14,3.60
2008,04,26,03,15,3.50
2008,04,26,03,16,3.50
2008,04,26,03,17,3.40
2008,04,26,03,18,3.40
2008,04,26,03,19,3.40
2008,04,26,03,20,3.40
2008,04,26,03,21,3.30
2008,04,26,03,22,3.30
2008,04,26,03,23,3.30
2008,04,26,03,24,3.30
2008,04,26,03,25,3.30
2008,04,26,03,26,3.30
2008,04,26,03,27,3.30
2008,04,26,03,28,3.30
2008,04,26,03,29,3.30
2008,04,26,03,30,3.30
2008,04,26,03,31,3.30
2008,04,26,03,32,3.30
2008,04,26,03,33,3.30
2008,04,26,03,34,3.40
2008,04,26,03,35,3.40
2008,04,26,03,36,3.40
2008,04,26,03,37,3.40
2008,04,26,03,38,3.40
2008,04,26,03,39,3.40
2008,04,26,03,40,3.40
2008,04,26,03,41,3.40
2008,04,26,03,42,3.40
2008,04,26,03,43,3.40
2008,04,26,03,44,3.30
2008,04,26,03,45,3.30
2008,04,26,03,46,3.30
2008,04,26,03,47,3.30
2008,04,26,03,48,3.30
2008,04,26,03,49,3.30
2008,04,26,03,50,3.20
2008,04,26,03,51,3.20
2008,04,26,03,52,3.10
2008,04,26,03,53,3.10
2008,04,26,03,54,3.20
2008,04,26,03,55,3.40
2008,04,26,03,56,3.50
2008,04,26,03,57,3.70
2008,04,26,03,58,3.80
2008,04,26,03,59,3.90
2008,04,26,04,00,4.00
2008,04,26,04,01,4.10
2008,04,26,04,02,4.10
2008,04,26,04,03,4.10
2008,04,26,04,04,4.20
2008,04,26,04,05,4.20
2008,04,26,04,06,4.20
2008,04,26,04,07,4.20
2008,04,26,04,08,4.20
2008,04,26,04,09,4.20
2008,04,26,04,10,4.20
2008,04,26,04,11,4.30
2008,04,26,04,12,4.30
2008,04,26,04,13,4.30
2008,04,26,04,14,4.30
2008,04,26,04,15,4.30
2008,04,26,04,16,4.20
2008,04,26,04,17,4.20
2008,04,26,04,18,4.20
2008,04,26,04,19,4.20
2008,04,26,04,20,4.10
2008,04,26,04,21,4.10
2008,04,26,04,22,4.10
2008,04,26,04,23,4.00
2008,04,26,04,24,4.00
2008,04,26,04,25,3.90
2008,04,26,04,26,3.90
2008,04,26,04,27,3.80
2008,04,26,04,28,3.70
2008,04,26,04,29,3.70
2008,04,26,04,30,3.70
2008,04,26,04,31,3.70
2008,04,26,04,32,3.70
2008,04,26,04,33,3.60
2008,04,26,04,34,3.60
2008,04,26,04,35,3.60
2008,04,26,04,36,3.70
2008,04,26,04,37,3.70
2008,04,26,04,38,3.70
2008,04,26,04,39,3.70
2008,04,26,04,40,3.70
2008,04,26,04,41,3.70
2008,04,26,04,42,3.70
2008,04,26,04,43,3.70
2008,04,26,04,44,3.70
2008,04,26,04,45,3.70
2008,04,26,04,46,3.70
2008,04,26,04,47,3.70
2008,04,26,04,48,3.70
2008,04,26,04,49,3.70
2008,04,26,04,50,3.70
2008,04,26,04,51,3.70
2008,04,26,04,52,3.70
2008,04,26,04,53,3.70
2008,04,26,04,54,3.70
2008,04,26,04,55,3.70
2008,04,26,04,56,3.70
2008,04,26,04,57,3.70
2008,04,26,04,58,3.70
2008,04,26,04,59,3.70
2008,04,26,05,00,3.70
2008,04,26,05,01,3.70
2008,04,26,05,02,3.80
2008,04,26,05,03,3.80
2008,04,26,05,04,3.80
2008,04,26,05,05,3.90
2008,04,26,05,06,3.90
2008,04,26,05,07,4.00
2008,04,26,05,08,4.00
2008,04,26,05,09,4.10
2008,04,26,05,10,4.10
2008,04,26,05,11,4.10
2008,04,26,05,12,4.10
2008,04,26,05,13,4.10
2008,04,26,05,14,4.10
2008,04,26,05,15,4.00
2008,04,26,05,16,4.00
2008,04,26,05,17,4.00
2008,04,26,05,18,3.90
2008,04,26,05,19,3.90
2008,04,26,05,20,3.80
2008,04,26,05,21,3.80
2008,04,26,05,22,3.80
2008,04,26,05,23,3.70
2008,04,26,05,24,3.70
2008,04,26,05,25,3.70
2008,04,26,05,26,3.60
2008,04,26,05,27,3.60
2008,04,26,05,28,3.50
2008,04,26,05,29,3.50
2008,04,26,05,30,3.50
2008,04,26,05,31,3.40
2008,04,26,05,32,3.40
2008,04,26,05,33,3.40
2008,04,26,05,34,3.40
2008,04,26,05,35,3.30
2008,04,26,05,36,3.30
2008,04,26,05,37,3.30
2008,04,26,05,38,3.30
2008,04,26,05,39,3.30
2008,04,26,05,40,3.30
2008,04,26,05,41,3.30
2008,04,26,05,42,3.20
2008,04,26,05,43,3.20
2008,04,26,05,44,3.20
2008,04,26,05,45,3.20
2008,04,26,05,46,3.20
2008,04,26,05,47,3.20
2008,04,26,05,48,3.20
2008,04,26,05,49,3.20
2008,04,26,05,50,3.20
2008,04,26,05,51,3.10
2008,04,26,05,52,3.10
2008,04,26,05,53,3.10
2008,04,26,05,54,3.10
2008,04,26,05,55,3.10
2008,04,26,05,56,3.10
2008,04,26,05,57,3.00
2008,04,26,05,58,3.00
2008,04,26,05,59,3.00
2008,04,26,06,00,3.00
2008,04,26,06,01,3.00
2008,04,26,06,02,3.00
2008,04,26,06,03,3.00
2008,04,26,06,04,3.00
2008,04,26,06,05,2.90
2008,04,26,06,06,2.90
2008,04,26,06,07,2.90
2008,04,26,06,08,2.90
2008,04,26,06,09,2.90
2008,04,26,06,10,2.90
2008,04,26,06,11,2.90
2008,04,26,06,12,2.90
2008,04,26,06,13,2.80
2008,04,26,06,14,2.80
2008,04,26,06,15,2.80
2008,04,26,06,16,2.80
2008,04,26,06,17,2.80
2008,04,26,06,18,2.80
2008,04,26,06,19,2.80
2008,04,26,06,20,2.80
2008,04,26,06,21,2.80
2008,04,26,06,22,2.80
2008,04,26,06,23,2.80
2008,04,26,06,24,2.80
2008,04,26,06,25,2.80
2008,04,26,06,26,2.70
2008,04,26,06,27,2.70
2008,04,26,06,28,2.70
2008,04,26,06,29,2.70
2008,04,26,06,30,2.60
2008,04,26,06,31,2.60
2008,04,26,06,32,2.60
2008,04,26,06,33,2.50
2008,04,26,06,34,2.50
2008,04,26,06,35,2.50
2008,04,26,06,36,2.50
2008,04,26,06,37,2.50
2008,04,26,06,38,2.50
2008,04,26,06,39,2.50
2008,04,26,06,40,2.50
2008,04,26,06,41,2.50
2008,04,26,06,42,2.50
2008,04,26,06,43,2.50
2008,04,26,06,44,2.60
2008,04,26,06,45,2.60
2008,04,26,06,46,2.60
2008,04,26,06,47,2.60
2008,04,26,06,48,2.60
2008,04,26,06,49,2.70
2008,04,26,06,50,2.70
2008,04,26,06,51,2.80
2008,04,26,06,52,2.80
2008,04,26,06,53,2.90
2008,04,26,06,54,2.90
2008,04,26,06,55,3.00
2008,04,26,06,56,3.10
2008,04,26,06,57,3.30
2008,04,26,06,58,3.40
2008,04,26,06,59,3.60
2008,04,26,07,00,3.70
2008,04,26,07,01,3.80
2008,04,26,07,02,4.00
2008,04,26,07,03,4.10
2008,04,26,07,04,4.10
2008,04,26,07,05,4.20
2008,04,26,07,06,4.30
2008,04,26,07,07,4.40
2008,04,26,07,08,4.50
2008,04,26,07,09,4.50
2008,04,26,07,10,4.60
2008,04,26,07,11,4.70
2008,04,26,07,12,4.70
2008,04,26,07,13,4.80
2008,04,26,07,14,4.80
2008,04,26,07,15,4.90
2008,04,26,07,16,4.90
2008,04,26,07,17,5.00
2008,04,26,07,18,5.00
2008,04,26,07,19,5.10
2008,04,26,07,20,5.10
2008,04,26,07,21,5.20
2008,04,26,07,22,5.30
2008,04,26,07,23,5.30
2008,04,26,07,24,5.40
2008,04,26,07,25,5.50
2008,04,26,07,26,5.50
2008,04,26,07,27,5.60
2008,04,26,07,28,5.60
2008,04,26,07,29,5.70
2008,04,26,07,30,5.70
2008,04,26,07,31,5.80
2008,04,26,07,32,5.80
2008,04,26,07,33,5.90
2008,04,26,07,34,5.90
2008,04,26,07,35,6.00
2008,04,26,07,36,6.00
2008,04,26,07,37,6.10
2008,04,26,07,38,6.10
2008,04,26,07,39,6.20
2008,04,26,07,40,6.20
2008,04,26,07,41,6.20
2008,04,26,07,42,6.30
2008,04,26,07,43,6.30
2008,04,26,07,44,6.30
2008,04,26,07,45,6.30
2008,04,26,07,46,6.40
2008,04,26,07,47,6.40
2008,04,26,07,48,6.40
2008,04,26,07,49,6.50
2008,04,26,07,50,6.50
2008,04,26,07,51,6.60
2008,04,26,07,52,6.60
2008,04,26,07,53,6.60
2008,04,26,07,54,6.70
2008,04,26,07,55,6.70
2008,04,26,07,56,6.70
2008,04,26,07,57,6.70
2008,04,26,07,58,6.70
2008,04,26,07,59,6.80
2008,04,26,08,00,6.80
2008,04,26,08,01,6.90
2008,04,26,08,02,6.90
2008,04,26,08,03,7.00
2008,04,26,08,04,7.00
2008,04,26,08,05,7.00
2008,04,26,08,06,7.00
2008,04,26,08,07,7.00
2008,04,26,08,08,7.00
2008,04,26,08,09,7.00
2008,04,26,08,10,7.00
2008,04,26,08,11,7.10
2008,04,26,08,12,7.10
2008,04,26,08,13,7.10
2008,04,26,08,14,7.20
2008,04,26,08,15,7.20
2008,04,26,08,16,7.20
2008,04,26,08,17,7.20
2008,04,26,08,18,7.20
2008,04,26,08,19,7.20
2008,04,26,08,20,7.30
2008,04,26,08,21,7.40
2008,04,26,08,22,7.40
2008,04,26,08,23,7.50
2008,04,26,08,24,7.50
2008,04,26,08,25,7.50
2008,04,26,08,26,7.60
2008,04,26,08,27,7.70
2008,04,26,08,28,7.70
2008,04,26,08,29,7.80
2008,04,26,08,30,7.80
2008,04,26,08,31,7.80
2008,04,26,08,32,7.80
2008,04,26,08,33,7.80
2008,04,26,08,34,7.80
2008,04,26,08,35,7.80
2008,04,26,08,36,7.80
2008,04,26,08,37,7.80
2008,04,26,08,38,7.90
2008,04,26,08,39,7.90
2008,04,26,08,40,7.90
2008,04,26,08,41,8.00
2008,04,26,08,42,8.00
2008,04,26,08,43,8.10
2008,04,26,08,44,8.10
2008,04,26,08,45,8.10
2008,04,26,08,46,8.20
2008,04,26,08,47,8.20
2008,04,26,08,48,8.20
2008,04,26,08,49,8.30
2008,04,26,08,50,8.30
2008,04,26,08,51,8.20
2008,04,26,08,52,8.20
2008,04,26,08,53,8.20
2008,04,26,08,54,8.20
2008,04,26,08,55,8.30
2008,04,26,08,56,8.30
2008,04,26,08,57,8.30
2008,04,26,08,58,8.40
2008,04,26,08,59,8.30
2008,04,26,09,00,8.30
2008,04,26,09,01,8.30
2008,04,26,09,02,8.30
2008,04,26,09,03,8.20
2008,04,26,09,04,8.30
2008,04,26,09,05,8.30
2008,04,26,09,06,8.30
2008,04,26,09,07,8.30
2008,04,26,09,08,8.30
2008,04,26,09,09,8.30
2008,04,26,09,10,8.30
2008,04,26,09,11,8.30
2008,04,26,09,12,8.30
2008,04,26,09,13,8.30
2008,04,26,09,14,8.40
2008,04,26,09,15,8.40
2008,04,26,09,16,8.50
2008,04,26,09,17,8.50
2008,04,26,09,18,8.60
2008,04,26,09,19,8.50
2008,04,26,09,20,8.50
2008,04,26,09,21,8.40
2008,04,26,09,22,8.40
2008,04,26,09,23,8.30
2008,04,26,09,24,8.30
2008,04,26,09,25,8.20
2008,04,26,09,26,8.20
2008,04,26,09,27,8.30
2008,04,26,09,28,8.30
2008,04,26,09,29,8.30
2008,04,26,09,30,8.30
2008,04,26,09,31,8.40
2008,04,26,09,32,8.40
2008,04,26,09,33,8.50
2008,04,26,09,34,8.60
2008,04,26,09,35,8.60
2008,04,26,09,36,8.60
2008,04,26,09,37,8.60
2008,04,26,09,38,8.50
2008,04,26,09,39,8.50
2008,04,26,09,40,8.50
2008,04,26,09,41,8.50
2008,04,26,09,42,8.70
2008,04,26,09,43,8.80
2008,04,26,09,44,8.80
2008,04,26,09,45,8.70
2008,04,26,09,46,8.70
2008,04,26,09,47,8.70
2008,04,26,09,48,8.80
2008,04,26,09,49,8.80
2008,04,26,09,50,8.90
2008,04,26,09,51,9.00
2008,04,26,09,52,8.90
2008,04,26,09,53,8.90
2008,04,26,09,54,8.90
2008,04,26,09,55,8.90
2008,04,26,09,56,8.80
2008,04,26,09,57,8.70
2008,04,26,09,58,8.70
2008,04,26,09,59,8.70
2008,04,26,10,00,8.60
2008,04,26,10,01,8.60
2008,04,26,10,02,8.60
2008,04,26,10,03,8.60
2008,04,26,10,04,8.70
2008,04,26,10,05,8.80
2008,04,26,10,06,8.80
2008,04,26,10,07,8.90
2008,04,26,10,08,9.00
2008,04,26,10,09,9.10
2008,04,26,10,10,9.10
2008,04,26,10,11,9.20
2008,04,26,10,12,9.20
2008,04,26,10,13,9.20
2008,04,26,10,14,9.10
2008,04,26,10,15,9.10
2008,04,26,10,16,9.10
2008,04,26,10,17,9.10
2008,04,26,10,18,9.20
2008,04,26,10,19,9.30
2008,04,26,10,20,9.30
2008,04,26,10,21,9.40
2008,04,26,10,22,9.30
2008,04,26,10,23,9.30
2008,04,26,10,24,9.30
2008,04,26,10,25,9.30
2008,04,26,10,26,9.30
2008,04,26,10,27,9.30
2008,04,26,10,28,9.40
2008,04,26,10,29,9.50
2008,04,26,10,30,9.60
2008,04,26,10,31,9.60
2008,04,26,10,32,9.60
2008,04,26,10,33,9.70
2008,04,26,10,34,9.70
2008,04,26,10,35,9.60
2008,04,26,10,36,9.60
2008,04,26,10,37,9.60
2008,04,26,10,38,9.60
2008,04,26,10,39,9.60
2008,04,26,10,40,9.60
2008,04,26,10,41,9.60
2008,04,26,10,42,9.70
2008,04,26,10,43,9.70
2008,04,26,10,44,9.80
2008,04,26,10,45,9.80
2008,04,26,10,46,9.90
2008,04,26,10,47,9.90
2008,04,26,10,48,9.90
2008,04,26,10,49,9.90
2008,04,26,10,50,9.90
2008,04,26,10,51,9.90
2008,04,26,10,52,9.90
2008,04,26,10,53,10.00
2008,04,26,10,54,10.00
2008,04,26,10,55,10.10
2008,04,26,10,56,10.20
2008,04,26,10,57,10.30
2008,04,26,10,58,10.40
2008,04,26,10,59,10.40
2008,04,26,11,00,10.30
2008,04,26,11,01,10.30
2008,04,26,11,02,10.30
2008,04,26,11,03,10.40
2008,04,26,11,04,10.40
2008,04,26,11,05,10.40
2008,04,26,11,06,10.40
2008,04,26,11,07,10.40
2008,04,26,11,08,10.40
2008,04,26,11,09,10.50
2008,04,26,11,10,10.50
2008,04,26,11,11,10.50
2008,04,26,11,12,10.50
2008,04,26,11,13,10.60
2008,04,26,11,14,10.60
2008,04,26,11,15,10.60
2008,04,26,11,16,10.70
2008,04,26,11,17,10.80
2008,04,26,11,18,10.80
2008,04,26,11,19,10.90
2008,04,26,11,20,11.00
2008,04,26,11,21,11.00
2008,04,26,11,22,11.10
2008,04,26,11,23,11.10
2008,04,26,11,24,11.00
2008,04,26,11,25,10.80
2008,04,26,11,26,10.70
2008,04,26,11,27,10.70
2008,04,26,11,28,10.60
2008,04,26,11,29,10.60
2008,04,26,11,30,10.60
2008,04,26,11,31,10.60
2008,04,26,11,32,10.70
2008,04,26,11,33,10.80
2008,04,26,11,34,10.80
2008,04,26,11,35,10.80
2008,04,26,11,36,10.80
2008,04,26,11,37,10.80
2008,04,26,11,38,10.90
2008,04,26,11,39,10.90
2008,04,26,11,40,10.90
2008,04,26,11,41,11.00
2008,04,26,11,42,11.00
2008,04,26,11,43,11.10
2008,04,26,11,44,11.10
2008,04,26,11,45,11.10
2008,04,26,11,46,11.10
2008,04,26,11,47,11.20
2008,04,26,11,48,11.10
2008,04,26,11,49,11.10
2008,04,26,11,50,11.10
2008,04,26,11,51,11.20
2008,04,26,11,52,11.20
2008,04,26,11,53,11.30
2008,04,26,11,54,11.40
2008,04,26,11,55,11.50
2008,04,26,11,56,11.60
2008,04,26,11,57,11.60
2008,04,26,11,58,11.60
2008,04,26,11,59,11.60
2008,04,26,12,00,11.60
2008,04,26,12,01,11.50
2008,04,26,12,02,11.40
2008,04,26,12,03,11.50
2008,04,26,12,04,11.60
2008,04,26,12,05,11.70
2008,04,26,12,06,11.70
2008,04,26,12,07,11.70
2008,04,26,12,08,11.60
2008,04,26,12,09,11.70
2008,04,26,12,10,11.80
2008,04,26,12,11,11.80
2008,04,26,12,12,12.00
2008,04,26,12,13,12.10
2008,04,26,12,14,12.20
2008,04,26,12,15,12.30
2008,04,26,12,16,12.40
2008,04,26,12,17,12.40
2008,04,26,12,18,12.40
2008,04,26,12,19,12.30
2008,04,26,12,20,12.10
2008,04,26,12,21,12.10
2008,04,26,12,22,12.00
2008,04,26,12,23,12.10
2008,04,26,12,24,12.10
2008,04,26,12,25,12.10
2008,04,26,12,26,12.00
2008,04,26,12,27,11.90
2008,04,26,12,28,12.00
2008,04,26,12,29,12.00
2008,04,26,12,30,12.00
2008,04,26,12,31,11.90
2008,04,26,12,32,11.80
2008,04,26,12,33,11.70
2008,04,26,12,34,11.60
2008,04,26,12,35,11.70
2008,04,26,12,36,11.70
2008,04,26,12,37,11.90
2008,04,26,12,38,11.90
2008,04,26,12,39,12.00
2008,04,26,12,40,12.00
2008,04,26,12,41,12.10
2008,04,26,12,42,12.20
2008,04,26,12,43,12.30
2008,04,26,12,44,12.30
2008,04,26,12,45,12.40
2008,04,26,12,46,12.40
2008,04,26,12,47,12.40
2008,04,26,12,48,12.40
2008,04,26,12,49,12.30
2008,04,26,12,50,12.30
2008,04,26,12,51,12.30
2008,04,26,12,52,12.30
2008,04,26,12,53,12.20
2008,04,26,12,54,12.20
2008,04,26,12,55,12.30
2008,04,26,12,56,12.40
2008,04,26,12,57,12.50
2008,04,26,12,58,12.60
2008,04,26,12,59,12.70
2008,04,26,13,00,12.80
2008,04,26,13,01,12.80
2008,04,26,13,02,12.70
2008,04,26,13,03,12.70
2008,04,26,13,04,12.80
2008,04,26,13,05,12.90
2008,04,26,13,06,13.00
2008,04,26,13,07,13.00
2008,04,26,13,08,13.10
2008,04,26,13,09,13.20
2008,04,26,13,10,13.20
2008,04,26,13,11,13.20
2008,04,26,13,12,13.30
2008,04,26,13,13,13.30
2008,04,26,13,14,13.20
2008,04,26,13,15,13.10
2008,04,26,13,16,12.90
2008,04,26,13,17,12.90
2008,04,26,13,18,12.80
2008,04,26,13,19,12.80
2008,04,26,13,20,12.80
2008,04,26,13,21,12.70
2008,04,26,13,22,12.60
2008,04,26,13,23,12.50
2008,04,26,13,24,12.50
2008,04,26,13,25,12.60
2008,04,26,13,26,12.70
2008,04,26,13,27,12.80
2008,04,26,13,28,12.80
2008,04,26,13,29,12.80
2008,04,26,13,30,12.80
2008,04,26,13,31,12.90
2008,04,26,13,32,12.90
2008,04,26,13,33,12.80
2008,04,26,13,34,12.90
2008,04,26,13,35,12.90
2008,04,26,13,36,12.90
2008,04,26,13,37,13.00
2008,04,26,13,38,13.10
2008,04,26,13,39,13.10
2008,04,26,13,40,13.10
2008,04,26,13,41,13.10
2008,04,26,13,42,13.10
2008,04,26,13,43,13.20
2008,04,26,13,44,13.30
2008,04,26,13,45,13.40
2008,04,26,13,46,13.50
2008,04,26,13,47,13.50
2008,04,26,13,48,13.60
2008,04,26,13,49,13.60
2008,04,26,13,50,13.40
2008,04,26,13,51,13.30
2008,04,26,13,52,13.20
2008,04,26,13,53,13.10
2008,04,26,13,54,12.90
2008,04,26,13,55,12.80
2008,04,26,13,56,12.70
2008,04,26,13,57,12.80
2008,04,26,13,58,12.90
2008,04,26,13,59,13.00
2008,04,26,14,00,13.10
2008,04,26,14,01,13.20
2008,04,26,14,02,13.20
2008,04,26,14,03,13.20
2008,04,26,14,04,13.10
2008,04,26,14,05,13.10
2008,04,26,14,06,13.10
2008,04,26,14,07,13.20
2008,04,26,14,08,13.20
2008,04,26,14,09,13.30
2008,04,26,14,10,13.50
2008,04,26,14,11,13.50
2008,04,26,14,12,13.50
2008,04,26,14,13,13.50
2008,04,26,14,14,13.50
2008,04,26,14,15,13.50
2008,04,26,14,16,13.60
2008,04,26,14,17,13.50
2008,04,26,14,18,13.40
2008,04,26,14,19,13.50
2008,04,26,14,20,13.60
2008,04,26,14,21,13.70
2008,04,26,14,22,13.70
2008,04,26,14,23,13.60
2008,04,26,14,24,13.60
2008,04,26,14,25,13.50
2008,04,26,14,26,13.40
2008,04,26,14,27,13.30
2008,04,26,14,28,13.30
2008,04,26,14,29,13.20
2008,04,26,14,30,13.20
2008,04,26,14,31,13.30
2008,04,26,14,32,13.30
2008,04,26,14,33,13.30
2008,04,26,14,34,13.30
2008,04,26,14,35,13.30
2008,04,26,14,36,13.30
2008,04,26,14,37,13.20
2008,04,26,14,38,13.20
2008,04,26,14,39,13.20
2008,04,26,14,40,13.20
2008,04,26,14,41,13.30
2008,04,26,14,42,13.40
2008,04,26,14,43,13.50
2008,04,26,14,44,13.70
2008,04,26,14,45,13.90
2008,04,26,14,46,14.00
2008,04,26,14,47,14.00
2008,04,26,14,48,14.00
2008,04,26,14,49,14.10
2008,04,26,14,50,14.10
2008,04,26,14,51,14.20
2008,04,26,14,52,14.10
2008,04,26,14,53,14.00
2008,04,26,14,54,13.80
2008,04,26,14,55,13.70
2008,04,26,14,56,13.70
2008,04,26,14,57,13.70
2008,04,26,14,58,13.80
2008,04,26,14,59,13.80
2008,04,26,15,00,13.80
2008,04,26,15,01,13.80
2008,04,26,15,02,13.70
2008,04,26,15,03,13.60
2008,04,26,15,04,13.60
2008,04,26,15,05,13.70
2008,04,26,15,06,13.80
2008,04,26,15,07,13.80
2008,04,26,15,08,13.90
2008,04,26,15,09,14.00
2008,04,26,15,10,14.00
2008,04,26,15,11,14.10
2008,04,26,15,12,14.10
2008,04,26,15,13,14.10
2008,04,26,15,14,14.20
2008,04,26,15,15,14.30
2008,04,26,15,16,14.20
2008,04,26,15,17,14.10
2008,04,26,15,18,14.00
2008,04,26,15,19,13.90
2008,04,26,15,20,13.90
2008,04,26,15,21,13.90
2008,04,26,15,22,13.90
2008,04,26,15,23,13.90
2008,04,26,15,24,13.90
2008,04,26,15,25,13.90
2008,04,26,15,26,13.90
2008,04,26,15,27,13.90
2008,04,26,15,28,13.90
2008,04,26,15,29,13.90
2008,04,26,15,30,13.90
2008,04,26,15,31,14.00
2008,04,26,15,32,14.00
2008,04,26,15,33,14.10
2008,04,26,15,34,14.10
2008,04,26,15,35,14.10
2008,04,26,15,36,14.10
2008,04,26,15,37,14.20
2008,04,26,15,38,14.20
2008,04,26,15,39,14.10
2008,04,26,15,40,14.10
2008,04,26,15,41,14.10
2008,04,26,15,42,14.10
2008,04,26,15,43,14.10
2008,04,26,15,44,14.10
2008,04,26,15,45,14.20
2008,04,26,15,46,14.20
2008,04,26,15,47,14.30
2008,04,26,15,48,14.40
2008,04,26,15,49,14.50
2008,04,26,15,50,14.60
2008,04,26,15,51,14.60
2008,04,26,15,52,14.50
2008,04,26,15,53,14.50
2008,04,26,15,54,14.50
2008,04,26,15,55,14.60
2008,04,26,15,56,14.60
2008,04,26,15,57,14.60
2008,04,26,15,58,14.60
2008,04,26,15,59,14.60
2008,04,26,16,00,14.60
2008,04,26,16,01,14.60
2008,04,26,16,02,14.50
2008,04,26,16,03,14.60
2008,04,26,16,04,14.60
2008,04,26,16,05,14.60
2008,04,26,16,06,14.60
2008,04,26,16,07,14.60
2008,04,26,16,08,14.80
2008,04,26,16,09,15.00
2008,04,26,16,10,15.00
2008,04,26,16,11,15.10
2008,04,26,16,12,15.10
2008,04,26,16,13,15.20
2008,04,26,16,14,15.30
2008,04,26,16,15,15.30
2008,04,26,16,16,15.30
2008,04,26,16,17,15.30
2008,04,26,16,18,15.30
2008,04,26,16,19,15.30
2008,04,26,16,20,15.30
2008,04,26,16,21,15.30
2008,04,26,16,22,15.20
2008,04,26,16,23,15.00
2008,04,26,16,24,15.00
2008,04,26,16,25,15.00
2008,04,26,16,26,15.00
2008,04,26,16,27,15.00
2008,04,26,16,28,15.00
2008,04,26,16,29,15.00
2008,04,26,16,30,15.00
2008,04,26,16,31,15.00
2008,04,26,16,32,15.10
2008,04,26,16,33,15.10
2008,04,26,16,34,15.10
2008,04,26,16,35,15.10
2008,04,26,16,36,15.10
2008,04,26,16,37,15.10
2008,04,26,16,38,15.00
2008,04,26,16,39,15.00
2008,04,26,16,40,15.00
2008,04,26,16,41,15.00
2008,04,26,16,42,15.00
2008,04,26,16,43,15.00
2008,04,26,16,44,15.00
2008,04,26,16,45,15.00
2008,04,26,16,46,15.00
2008,04,26,16,47,15.00
2008,04,26,16,48,15.00
2008,04,26,16,49,15.00
2008,04,26,16,50,15.00
2008,04,26,16,51,14.90
2008,04,26,16,52,15.00
2008,04,26,16,53,15.00
2008,04,26,16,54,15.00
2008,04,26,16,55,15.00
2008,04,26,16,56,15.00
2008,04,26,16,57,15.00
2008,04,26,16,58,15.00
2008,04,26,16,59,15.10
2008,04,26,17,00,15.20
2008,04,26,17,01,15.20
2008,04,26,17,02,15.30
2008,04,26,17,03,15.30
2008,04,26,17,04,15.30
2008,04,26,17,05,15.30
2008,04,26,17,06,15.40
2008,04,26,17,07,15.40
2008,04,26,17,08,15.40
2008,04,26,17,09,15.40
2008,04,26,17,10,15.40
2008,04,26,17,11,15.30
2008,04,26,17,12,15.10
2008,04,26,17,13,15.00
2008,04,26,17,14,15.00
2008,04,26,17,15,15.00
2008,04,26,17,16,15.00
2008,04,26,17,17,15.00
2008,04,26,17,18,14.90
2008,04,26,17,19,14.90
2008,04,26,17,20,14.80
2008,04,26,17,21,14.70
2008,04,26,17,22,14.70
2008,04,26,17,23,14.70
2008,04,26,17,24,14.70
2008,04,26,17,25,14.70
2008,04,26,17,26,14.70
2008,04,26,17,27,14.70
2008,04,26,17,28,14.60
2008,04,26,17,29,14.60
2008,04,26,17,30,14.60
2008,04,26,17,31,14.60
2008,04,26,17,32,14.60
2008,04,26,17,33,14.50
2008,04,26,17,34,14.50
2008,04,26,17,35,14.40
2008,04,26,17,36,14.30
2008,04,26,17,37,14.30
2008,04,26,17,38,14.20
2008,04,26,17,39,14.20
2008,04,26,17,40,14.10
2008,04,26,17,41,14.00
2008,04,26,17,42,14.00
2008,04,26,17,43,13.90
2008,04,26,17,44,13.90
2008,04,26,17,45,13.80
2008,04,26,17,46,13.80
2008,04,26,17,47,13.80